Regional Weather Roundup
Issued by NWS Cleveland, OH

Home | Current Version | Previous Version | Text Only | Print | Product List | Glossary Off
Versions: 1 2 3 4 5 6 7 8 9 10 11 12 13 14 15 16 17 18 19 20 21 22 23 24 25 26 27 28 29 30 31 32 33 34 35 36 37 38 39 40 41 42 43 44 45 46 47 48 49 50

000
ASUS41 KCLE 231502
RWRCLE
OHIO REGIONAL WEATHER ROUNDUP
NATIONAL WEATHER SERVICE CLEVELAND, OH
1100 AM EDT WED JUL 23 2014

NOTE: "FAIR" INDICATES FEW OR NO CLOUDS BELOW 12,000 FEET WITH NO
SIGNIFICANT WEATHER AND/OR OBSTRUCTIONS TO VISIBILITY.

OHZ001>008-015>018-024>027-034-035-043-044-231600-
   NORTHWEST OHIO

CITY           SKY/WX    TMP DP  RH WIND       PRES   REMARKS
DEFIANCE         N/A    N/A N/A N/A MISG      30.02R
FINDLAY        PTSUNNY   77  67  71 W14       30.00R
TOLEDO EXPRESS CLOUDY    70  62  76 N9        30.01R
TOLEDO EXEC    CLOUDY    71  63  75 N7        30.01R
LIMA           MOSUNNY   77  69  76 W12       30.03R
$$

OHZ009>014-019>023-028>033-038-089-231600-
   NORTHEAST OHIO

CITY           SKY/WX    TMP DP  RH WIND       PRES   REMARKS
CLE-HOPKINS    CLOUDY    73  68  84 W8        29.98S
CLE-LAKEFRONT  CLOUDY    70  66  87 N14G22    29.95R
CUY CO. ARPT   CLOUDY    75  72  88 W12       29.96F
LORAIN-ELYRIA  CLOUDY    73  67  81 N12G24    29.98S
ASHTABULA      PTSUNNY   73  68  84 NW10      29.96S
AKRON-CANTON   CLOUDY    76  66  71 W7        29.98R
WOOSTER        CLOUDY    75  67  76 NW13      29.99R
MANSFIELD      CLOUDY    75  68  78 W8G18     30.00R
YOUNGSTOWN     CLOUDY    77  66  68 NW10      29.96F
$$

OHZ042-051>053-060>062-070>072-077>081-231600-
  SOUTHWEST OHIO

CITY           SKY/WX    TMP DP  RH WIND       PRES   REMARKS
CINC-COVINGTON LGT RAIN  73  67  81 W7        30.05R
CINC-LUNKEN    CLOUDY    76  69  79 W10       30.04R
HAMILTON       NOT AVBL
DAYTON         PTSUNNY   73  67  81 W12       30.06S
WRIGHT-PAT AFB PTSUNNY   72  67  84 SW9       30.04R
DAYTON GENERAL CLOUDY    71  67  87 NW7       30.05R
WILMINGTON     LGT RAIN  73  65  75 W7        30.02R
$$

OHZ036-037-039>041-045>050-054>059-063>069-073>076-082>088-231600-
  CENTRAL AND SOUTHEAST OHIO

CITY           SKY/WX    TMP DP  RH WIND       PRES   REMARKS
COLUMBUS       CLOUDY    74  67  78 N13       29.98R
OSU AIRPORT    CLOUDY    72  67  84 W10       30.01R
BOLTON FIELD   PTSUNNY   72  66  83 NW16      30.01
RICKENBACK AFB CLOUDY    77  64  64 W9        29.96R
NEWARK         CLOUDY    75  67  76 N8        29.97R
MARION         PTSUNNY   76  66  71 W14G21    29.99F
LANCASTER      PTSUNNY   79  66  64 S7        29.95F
ZANESVILLE     CLOUDY    77  67  71 S10       29.94F
NEW PHILLY     CLOUDY    77  68  73 NW7       29.98R
$$


USA.gov is the U.S. government's official web portal to all federal, state and local government web resources and services.